Location: Astrup
(56.3200°N, 10.1446°E)
Time: 01:53:55
(UTC+00:00)

Daily predictions for brighter satellites

Satellite Brightness Start Highest point End
(mag) Time Altitude Azimuth Time Altitude Azimuth Time Altitude Azimuth
Cosmos 1536 Rocket 4.0 00:04:21 10° N 00:08:40 58° ENE 00:11:19 22° SSE
Cosmos 2219 Rocket 2.7 00:03:18 10° NW 00:08:40 43° WSW 00:11:13 27° SSW
Cosmos 2082 Rocket 4.4 00:05:35 10° WNW 00:10:10 24° NNW 00:14:45 10° NNE
Cosmos 1437 2.9 00:07:35 10° N 00:10:34 59° ENE 00:11:26 38° SE
Cosmos 1464 Rocket 4.0 00:08:47 26° S 00:12:34 90° W 00:18:49 10° NNE
Lacrosse 4 Rocket 1.4 00:13:01 33° SSW 00:14:49 72° SE 00:19:01 10° NE
Cosmos 1782 Rocket 3.5 00:12:54 32° SSW 00:14:51 77° WNW 00:19:14 10° N
Cosmos 2322 Rocket 4.4 00:14:55 10° W 00:15:38 10° W 00:16:22 10° W
FALCON 9 DEB 3.3 00:15:50 38° SW 00:16:43 49° S 00:20:06 10° ESE
Landsat 4 3.9 00:14:46 10° NNE 00:18:34 66° WNW 00:20:07 33° SW
IRAS Rocket 4.4 00:14:44 15° SSE 00:19:23 72° ENE 00:24:59 10° NNW
Cosmos 1354 Rocket 4.1 00:16:38 28° S 00:19:28 67° ESE 00:24:47 10° NNE
SL-16 R/B 2.9 00:14:51 10° NNW 00:20:28 55° NE 00:26:04 10° SE
SL-4 R/B 3.1 00:22:19 22° SE 00:22:19 22° SE 00:23:51 10° ESE
Cosmos 968 Rocket 3.5 00:19:13 26° SW 00:22:08 81° WNW 00:27:19 10° NNE
Cosmos 1908 Rocket 4.4 00:21:10 23° SW 00:23:26 41° WNW 00:27:37 10° N
COSMOS 2428 3.4 00:21:29 10° NW 00:26:42 37° WSW 00:29:12 25° SSW
Nadezhda 4 Rocket 4.1 00:25:09 10° NNW 00:31:24 63° W 00:35:18 24° SSW
Cosmos 2360 Rocket 4.1 00:28:50 10° WNW 00:31:37 14° W 00:33:24 12° WSW
Cosmos 1680 Rocket 4.5 00:28:53 10° NNW 00:34:00 48° NE 00:39:04 10° SE
SL-16 R/B 2.6 00:28:37 14° SSE 00:34:04 84° ENE 00:40:23 10° NNW
CZ-2D R/B 3.1 00:28:59 10° NNE 00:34:08 40° E 00:38:05 16° SSE
BREEZE-M TANK 4.4 00:36:08 13° SE 00:36:08 13° SE 00:37:10 10° SE
CENTAUR R/B 3.3 00:29:22 10° WSW 00:35:54 62° NNW 00:43:40 10° ENE
Cosmos 1607 4.1 00:30:08 10° NW 00:36:36 85° NE 00:43:06 10° SE
USA 267 3.2 00:32:06 10° ESE 00:38:40 83° SSW 00:45:16 10° WNW
Cosmos 2034 Rocket 4.0 00:35:41 24° SSW 00:39:43 82° WNW 00:46:06 10° N
GEOS 3 Rocket 4.1 00:34:28 10° NE 00:39:44 49° SE 00:42:46 24° SSW
KORONAS-FOTON 4.2 00:37:25 10° N 00:41:11 60° ENE 00:43:45 19° SSE
ADEOS II 4.0 00:38:17 10° NE 00:42:24 23° E 00:46:30 10° SE
Cosmos 1092 Rocket 4.0 00:37:16 10° NNW 00:43:34 77° W 00:48:01 20° S
Cosmos 1975 Rocket 4.3 00:39:57 10° NNW 00:43:48 28° W 00:45:36 21° SW
Okean 2 Rocket 3.1 00:41:46 27° S 00:44:09 89° ESE 00:48:42 10° NNE
Meteor 2-9 Rocket 4.5 00:41:29 23° SW 00:44:58 60° WNW 00:50:39 10° N
PSLV R/B 4.3 00:41:13 10° N 00:45:39 49° WNW 00:48:26 22° SW
Cosmos 1980 3.9 00:40:25 10° NW 00:45:57 55° WSW 00:49:51 19° S
Cosmos 2333 Rocket 3.5 00:41:37 10° NW 00:46:08 24° WSW 00:48:11 20° SW
Helios 1B rocket 2.7 00:42:40 10° N 00:46:43 59° WNW 00:48:49 26° SW
Cosmos 1975 3.9 00:45:31 22° WSW 00:47:31 35° WNW 00:51:16 10° N
Cosmos 2297 Rocket 3.1 00:45:36 18° SSE 00:49:12 38° ESE 00:54:23 10° NE
Cosmos 2219 3.9 00:45:50 20° S 00:49:21 42° ESE 00:54:37 10° NE
COSMOS 2487 4.2 00:48:08 14° W 00:50:18 25° NW 00:53:14 10° N
Meteor 1-29 3.0 00:47:16 10° NNE 00:50:44 72° WNW 00:52:12 32° SSW
Sich 1 Rocket 3.9 00:48:43 26° SW 00:51:03 56° WNW 00:55:24 10° N
Cosmos 1777 Rocket 4.5 00:49:00 22° S 00:52:18 53° ESE 00:57:27 10° NE
Cosmos 44 Rocket 4.3 00:49:22 10° WNW 00:53:35 28° WSW 00:55:08 24° SSW
UNK 3.7 00:52:23 20° S 00:55:38 78° WSW 01:00:22 10° NNW
Cosmos 2237 Rocket 2.4 00:50:31 10° NW 00:55:59 50° WSW 00:59:51 19° S
Cosmos 1300 Rocket 3.6 00:57:53 26° SSW 01:00:16 71° WNW 01:04:36 10° N
Cosmos 1503 Rocket 4.3 00:56:39 20° SW 01:00:20 64° WNW 01:05:42 10° NNE
Cosmos 1626 3.1 00:57:08 10° N 01:00:44 44° ENE 01:04:19 10° SE
NOSS 3-2 (C) 4.4 00:55:14 10° W 01:01:24 53° NNW 01:08:34 10° ENE
Cosmos 2084 Rocket 4.3 00:57:49 10° W 01:01:59 49° NNW 01:06:16 10° NE
DELTA 2 DEB (DPAF) 4.3 01:00:27 24° S 01:02:58 54° WSW 01:07:21 10° NNW
Okean 1 Rocket 3.6 01:01:02 18° SSE 01:04:02 53° E 01:08:18 10° NNE
Cosmos 923 Rocket 4.1 00:58:49 10° NNW 01:04:13 87° ENE 01:09:33 10° SSE
CZ-4C R/B 3.0 01:04:19 26° S 01:06:06 65° WSW 01:09:39 10° NNW
Cosmos 2098 Rocket 4.4 01:06:20 10° N 01:10:32 45° ENE 01:15:50 10° SE
Cosmos 158 Rocket 4.1 01:07:10 10° NNW 01:12:32 82° ENE 01:17:57 10° SSE
SL-08 R/B 4.4 01:08:01 10° SE 01:12:46 47° ENE 01:17:31 10° N
IKONOS-2 4.5 01:10:35 19° S 01:13:36 70° WSW 01:17:52 10° NNW
Cosmos 2151 Rocket 3.7 01:12:29 23° SSW 01:15:11 67° WNW 01:19:36 10° N
Cosmos 1707 4.2 01:12:25 10° NW 01:15:37 24° W 01:17:05 19° WSW
Meteor 1-12 Rocket 4.5 01:11:28 20° SSW 01:15:42 68° WNW 01:21:44 10° NNE
Timation 2 Rocket 3.9 01:14:34 19° SSW 01:19:06 82° ESE 01:25:08 10° NE
SL-14 R/B 3.5 01:20:28 10° N 01:24:26 72° ENE 01:28:20 10° SSE
DNEPR-1 R/B 4.4 01:19:42 10° NW 01:25:31 45° WSW 01:30:17 10° SSE
ERBS 3.1 01:23:39 10° W 01:26:32 28° SW 01:29:25 10° SSE
Cosmos 1805 3.3 01:24:26 19° S 01:27:09 73° E 01:31:04 10° NNE
Cosmos 1943 4.3 01:21:48 10° NNW 01:27:16 47° NE 01:32:42 10° ESE
Meteor 1-15 Rocket 4.2 01:22:53 17° S 01:27:20 87° E 01:32:58 10° NNE
SJ 16-02 2.6 01:25:10 12° SSE 01:28:49 35° ESE 01:32:51 10° NE
Cosmos 1025 Rocket 4.5 01:30:47 10° NW 01:34:07 22° W 01:36:08 16° WSW
Resurs 1-4 Rocket 2.1 01:29:52 10° NNE 01:35:11 81° WNW 01:39:24 16° SSW
Cosmos 1674 3.4 01:34:17 10° NNW 01:37:43 35° W 01:39:48 20° SSW
Cosmos 2227 Rocket 2.4 01:33:34 16° SSW 01:38:04 66° ESE 01:43:42 10° NE
Cosmos 1455 Rocket 4.2 01:34:57 10° SSE 01:39:04 40° E 01:43:15 10° NNE
Cosmos 1892 Rocket 3.6 01:36:46 10° NNW 01:41:17 86° W 01:45:44 10° S
Cosmos 1733 3.2 01:42:54 16° S 01:45:56 82° E 01:49:48 10° NNE
USA 215 4.0 01:40:05 10° ENE 01:46:10 39° SE 01:51:29 13° SSW
Cosmos 724 4.4 01:42:51 10° NW 01:48:51 89° SW 01:54:57 10° SE
ATLAS 3B R/B 3.3 01:42:36 10° W 01:49:06 55° NNW 01:55:45 10° ENE
Cosmos 2279 Rocket 4.0 01:44:46 13° SSW 01:50:21 83° W 01:56:37 10° N
COBE Rocket 3.9 01:47:33 11° S 01:51:53 55° W 01:56:28 10° NNW
FALCON 9 DEB 3.9 01:50:15 10° W 01:53:23 31° SSW 01:56:31 10° SE
Lacrosse 4 Rocket 2.9 01:50:05 10° W 01:53:52 30° NNW 01:57:36 10° NNE
Cosmos 1634 Rocket 4.3 01:50:26 15° SSW 01:55:40 55° WNW 02:01:48 10° N
Cosmos 2112 Rocket 4.1 01:53:15 10° NNW 01:58:24 58° WSW 02:03:30 10° S
Cosmos 2082 4.1 01:53:30 12° SSW 01:58:38 57° ESE 02:04:09 10° NE
Cosmos 1340 Rocket 4.0 01:55:17 10° SSE 01:59:00 38° E 02:02:42 10° NNE
SL-4 R/B 2.9 01:58:02 14° WSW 01:59:36 19° SSW 02:02:05 10° SSE
Meteor 1-24 Rocket 3.9 01:57:42 10° NNW 02:03:06 53° W 02:08:20 10° S
CBERS-1 4.1 01:58:53 10° NNE 02:04:03 87° ESE 02:09:09 10° SSW
ERS-2 3.8 02:01:04 10° SE 02:04:26 36° ENE 02:07:50 10° N
SL-16 R/B 2.7 01:59:12 10° NW 02:04:31 41° WSW 02:09:48 10° S
Cosmos 1953 4.3 02:02:05 10° SSE 02:05:30 27° E 02:08:58 10° NNE
Meteor 2-5 Rocket 4.2 02:01:24 10° NNW 02:06:43 41° W 02:11:54 10° SSW
Cosmos 1726 3.9 02:06:18 10° SSE 02:09:32 29° E 02:12:45 10° NNE
ARIANE 5 R/B 3.2 02:06:19 10° NNE 02:11:28 56° ESE 02:16:36 10° S
NPP 4.0 02:08:05 10° N 02:13:20 54° WNW 02:18:22 11° SW
IDEFIX/ARIANE 42P 3.6 02:09:19 10° NNE 02:14:17 43° E 02:19:14 10° S
CZ-2D R/B 2.7 02:09:05 10° N 02:14:20 48° WNW 02:19:24 11° SW
Cosmos 1680 Rocket 4.0 02:11:13 10° NW 02:16:04 39° WSW 02:20:53 10° S
H-2A R/B 2.6 02:12:17 10° SSE 02:16:20 60° ENE 02:20:24 10° N
Cosmos 1898 Rocket 4.0 02:12:14 10° S 02:17:21 57° ESE 02:22:29 10° NE
GEOS 3 Rocket 4.1 02:12:34 10° NE 02:17:54 63° NNW 02:23:15 10° WSW
SL-16 R/B 3.7 02:13:42 11° SW 02:18:25 25° W 02:23:32 10° NW
AQUA 4.3 02:15:18 10° N 02:19:56 50° WNW 02:24:26 10° SW
USA 267 3.5 02:15:57 10° SE 02:22:12 46° SW 02:28:28 10° WNW
ADEOS II 2.1 02:17:25 10° NNE 02:22:43 78° WNW 02:27:58 10° SSW
NOSS 3-1 (C) 4.4 02:18:04 10° S 02:23:14 39° ESE 02:29:14 10° ENE
Cosmos 1544 Rocket 3.8 02:21:02 10° S 02:25:30 75° E 02:30:00 10° NNE
IRS-1D 3.6 02:21:35 10° NNE 02:26:33 64° WNW 02:31:36 10° SSW
CENTAUR R/B 3.9 02:20:54 10° WNW 02:27:47 50° N 02:35:46 10° E
CZ-4C R/B 3.2 02:25:43 10° SSE 02:28:57 68° ENE 02:32:17 10° N
Cosmos 990 Rocket 4.2 02:23:50 10° SSW 02:29:00 72° ESE 02:34:11 10° NNE
Okean 1-7 Rocket 4.1 02:25:35 10° NNW 02:29:45 42° W 02:33:54 10° SSW
Cosmos 1766 4.2 02:26:32 11° SW 02:30:00 34° WNW 02:33:36 10° N
Cosmos 2263 Rocket 3.7 02:26:43 10° SSE 02:31:35 32° ESE 02:36:27 10° NE
Cosmos 1703 4.3 02:28:01 10° N 02:31:56 50° ENE 02:35:48 10° SSE
IRS-1C 4.2 02:26:56 10° NNE 02:32:19 87° WNW 02:37:40 10° SSW
CZ-4B R/B 4.0 02:29:54 10° ESE 02:32:37 25° ENE 02:35:18 10° N
Meteor 1-22 Rocket 4.2 02:27:28 10° SSW 02:32:42 62° WNW 02:38:00 10° N
Cosmos 2297 Rocket 2.6 02:27:31 10° SW 02:33:06 58° NW 02:38:42 10° NNE
Cosmos 2219 3.7 02:27:57 10° WSW 02:33:28 52° NW 02:38:59 10° NNE
Cosmos 1626 3.6 02:32:51 10° NW 02:35:46 22° W 02:38:39 10° SW
Cosmos 2266 Rocket 4.4 02:30:19 10° NNW 02:36:28 50° W 02:42:29 10° SSW
Uosat 12 SS-18 rocket 4.3 02:33:52 10° WSW 02:38:40 72° NW 02:43:02 10° NE
Cosmos 2237 Rocket 4.1 02:37:36 10° W 02:38:43 11° W 02:39:50 10° WSW
Cosmos 1602 Rocket 3.5 02:34:50 10° NNW 02:39:15 81° W 02:43:36 10° S
CZ-4B R/B 3.9 02:35:13 10° N 02:39:49 46° WNW 02:44:21 10° SW
Meteor 1-28 Rocket 3.9 02:37:42 10° SSW 02:41:14 36° W 02:44:48 10° NNW
Okean 1 Rocket 4.4 02:38:38 10° WSW 02:42:15 25° WNW 02:45:54 10° N
CZ-2C R/B 4.3 02:38:34 10° NE 02:42:25 26° E 02:46:15 10° SSE
Cosmos 1603 3.8 02:38:32 10° NW 02:44:14 62° WSW 02:49:52 10° SSE
Meteor 2-21 Rocket 4.5 02:39:07 10° NNW 02:45:12 83° W 02:51:16 10° S
Cosmos 1470 2.9 02:42:29 10° SSW 02:46:25 62° WNW 02:50:24 10° N
SL-08 R/B 4.1 02:46:11 10° SSW 02:50:43 35° W 02:55:17 10° NNW
